Home > Weather > China > Shanghai > Past weeks

Flag for China Weather past 2 weeks in Shanghai, Shanghai Municipality, China

55 °F


Feels Like: 52 °F
Forecast: 39 / 47 °F
Wind: 13 mph from Northwest

Location: Shanghai Hongqiao Airport

Current Time: Dec 2, 2015 at 1:32:04 PM

Latest Report: Dec 2, 2015 at 12:30 PM

Visibility: 3 mi

Pressure: 30.12 "Hg

Humidity: 77%

Dew point: 48 °F

Location of ShanghaiLocation

Historic Weather in Shanghai — Graph


Shanghai temperature yesterday

Maximum temperature yesterday: 64 °F (at 11:30 AM)
Minimum temperature yesterday: 48 °F (at 2:30 AM)
Average temperature yesterday: 58 °F

Past Weeks' High & Low Weather Summary

High68 °F (Nov 22, 12:30 PM)100% (Nov 17, 8:00 PM)30.48 "Hg (Nov 17, 8:00 PM)
Low28 °F (Nov 27, 3:30 AM)29% (Nov 27, 4:00 PM)29.95 "Hg (Nov 18, 3:30 AM)
Average54 °F80%30.24 "Hg
* Reported Nov 17 11:00 AM — Dec 2 11:30 AM, Shanghai, Weather by CustomWeather, © 2015

Note: Actual official high and low records may vary slightly from our data, if they occured in-between our weather recording intervals... More about our weather records


Shanghai weather history for previous 24 hours

Time TempWeatherWind HumidityBarometerVisibility
11:30 AM
Wed, Dec 2
55 °FFog.10 mph77%30.15 "Hg3 mi
10:30 AM55 °FLight rain. Fog.13 mph82%30.15 "Hg2 mi
10:00 AM55 °FLight rain. Fog.13 mph88%30.18 "Hg2 mi
8:30 AM57 °FLight rain. Fog.10 mph94%30.15 "Hg1 mi
8:00 AM57 °FLight rain. Fog.10 mph94%30.15 "Hg1 mi
7:30 AM57 °FLight rain. Fog.8 mph94%30.12 "Hg1 mi
7:00 AM57 °FLight rain. Fog.6 mph94%30.12 "Hg1 mi
6:00 AM59 °FFog.3 mph82%30.07 "Hg2 mi
5:30 AM59 °FFog.8 mph88%30.07 "Hg3 mi
5:00 AM59 °FPassing clouds.6 mph88%30.07 "Hg4 mi
4:30 AM59 °FPassing clouds.3 mph88%30.07 "Hg4 mi
4:00 AM57 °FPassing clouds.3 mph94%30.07 "Hg4 mi
3:30 AM59 °FClear.1 mph88%30.07 "Hg5 mi
3:00 AM59 °FClear.1 mph88%30.07 "Hg4 mi
2:30 AM59 °FClear.1 mph88%30.07 "Hg10 mi
2:00 AM59 °FClear.3 mph88%30.07 "Hg10 mi
1:30 AM59 °FClear.3 mph88%30.07 "Hg10 mi
1:00 AM59 °FClear.6 mph88%30.07 "Hg10 mi
12:30 AM59 °FClear.3 mph82%30.07 "Hg10 mi
12:00 AM59 °FClear.3 mph82%30.09 "Hg10 mi
11:30 PM
Tue, Dec 1
59 °FClear.6 mph82%30.09 "Hg10 mi
11:00 PM59 °FClear.6 mph82%30.09 "Hg10 mi
10:30 PM59 °FClear.8 mph82%30.09 "Hg10 mi
10:00 PM61 °FClear.8 mph77%30.09 "Hg10 mi
9:30 PM61 °FClear.8 mph77%30.09 "Hg10 mi
9:00 PM61 °FClear.8 mph77%30.09 "Hg10 mi
8:30 PM61 °FClear.8 mph77%30.12 "Hg10 mi
8:00 PM61 °FClear.6 mph77%30.12 "Hg10 mi
7:30 PM61 °FClear.8 mph72%30.12 "Hg10 mi
7:00 PM61 °FClear.10 mph72%30.12 "Hg10 mi
6:30 PM61 °FClear.8 mph72%30.12 "Hg10 mi
6:00 PM63 °FClear.10 mph68%30.12 "Hg10 mi
5:30 PM63 °FPassing clouds.8 mph68%30.12 "HgN/A
5:00 PM63 °FClear.10 mph68%30.12 "Hg10 mi
4:30 PM63 °FSunny.10 mph68%30.12 "Hg10 mi
4:00 PM63 °FSunny.10 mph64%30.12 "Hg10 mi
3:30 PM64 °FSunny.10 mph60%30.12 "Hg10 mi
3:00 PM64 °FSunny.13 mph60%30.12 "Hg10 mi
2:30 PM64 °FPassing clouds.8 mph60%30.12 "HgN/A
2:00 PM64 °FPassing clouds.10 mph60%30.12 "HgN/A
1:30 PM64 °FPassing clouds.8 mph60%30.12 "HgN/A
1:00 PM64 °FPassing clouds.10 mph60%30.15 "HgN/A
Weather by CustomWeather, © 2015

See weather overviewHow to use our weather pages